Weather History for PAAQ - August, 2013

Change the Weather History Date:

Monday, August 26, 2013

  Actual Average Record
Temperature  
Mean Temperature 54 °F -  
Max Temperature 64 °F 62 °F 76 °F (1987)
Min Temperature 43 °F 44 °F 35 °F (2000)
Degree Days  
Heating Degree Days 12    
Growing Degree Days 4 (Base 50)    
Moisture  
Dew Point 44 °F    
Average Humidity 72    
Maximum Humidity 93    
Minimum Humidity 50    
Precipitation  
Precipitation 0.00 in - - ()
Sea Level Pressure  
Sea Level Pressure 29.74 in    
Wind  
Wind Speed 6 mph (NNW)    
Max Wind Speed 10 mph    
Max Gust Speed -    
Visibility 10 miles    
Events      
Averages and records for this station are not official NWS values.
T = Trace of Precipitation, MM = Missing Value Source: NWS Daily Summary

Daily Weather History Graph

Daily Weather History Graph

Search for Another Location

Airport or City:

Trip Planner

Search our weather history database for the weather conditions in past years. The results will help you decide how hot, cold, wet, or windy it might be!

Date:

Astronomy

Aug. 26, 2013 Rise Set
Actual Time 6:32 AM AKDT 9:21 PM AKDT
Civil Twilight 5:42 AM AKDT 10:11 PM AKDT
Nautical Twilight 4:33 AM AKDT 11:18 PM AKDT
Astronomical Twilight 2:20 AM AKDT 1:16 AM AKDT
Moon 10:33 PM AKDT (8/26) 2:47 PM AKDT (8/26)
Length of Visible Light 16h 28m
Length of Day
14h 48m
Waning Gibbous, 65% of the Moon is Illuminated
Aug 26
Waning Gibbous
Aug 28
Last Quarter
Sep 5
New
Sep 12
First Quarter
Sep 19
Full

Hourly Weather History & Observations

Time (AKDT) Temp. Windchill Dew Point Humidity Pressure Visibility Wind Dir Wind Speed Gust Speed Precip Events Conditions
12:53 AM 46.9 °F - 45.0 °F 93% 29.74 in 10.0 mi North 8.1 mph - N/A   Clear
1:53 AM 46.0 °F 43.9 °F 43.0 °F 89% 29.75 in 10.0 mi NNW 4.6 mph - N/A   Clear
2:53 AM 45.0 °F 41.2 °F 42.1 °F 90% 29.76 in 10.0 mi North 6.9 mph - N/A   Clear
3:53 AM 44.1 °F 39.0 °F 41.0 °F 89% 29.76 in 10.0 mi North 9.2 mph - N/A   Clear
4:53 AM 44.1 °F 40.8 °F 41.0 °F 89% 29.76 in 10.0 mi North 5.8 mph - N/A   Clear
5:53 AM 43.0 °F 37.2 °F 39.9 °F 89% 29.75 in 10.0 mi NNW 10.4 mph - N/A   Clear
6:53 AM 43.0 °F 37.7 °F 39.0 °F 86% 29.75 in 10.0 mi NNW 9.2 mph - N/A   Clear
7:53 AM 44.1 °F 39.5 °F 39.0 °F 82% 29.76 in 10.0 mi NNW 8.1 mph - N/A   Scattered Clouds
8:53 AM 48.0 °F - 41.0 °F 77% 29.76 in 10.0 mi NNW 4.6 mph - N/A   Scattered Clouds
9:53 AM 52.0 °F - 41.0 °F 66% 29.76 in 10.0 mi Calm Calm - N/A   Scattered Clouds
10:53 AM 54.0 °F - 43.0 °F 66% 29.76 in 10.0 mi ESE 3.5 mph - N/A   Scattered Clouds
11:53 AM 57.9 °F - 45.0 °F 62% 29.75 in 10.0 mi Calm Calm - N/A   Scattered Clouds
12:53 PM 60.1 °F - 46.0 °F 60% 29.75 in 10.0 mi WSW 3.5 mph - N/A   Scattered Clouds
1:53 PM 61.0 °F - 46.9 °F 60% 29.73 in 10.0 mi SE 4.6 mph - N/A   Scattered Clouds
2:53 PM 62.1 °F - 45.0 °F 53% 29.73 in 10.0 mi Calm Calm - N/A   Scattered Clouds
3:53 PM 63.0 °F - 45.0 °F 52% 29.72 in 10.0 mi South 3.5 mph - N/A   Scattered Clouds
4:53 PM 64.0 °F - 45.0 °F 50% 29.72 in 10.0 mi South 4.6 mph - N/A   Mostly Cloudy
5:53 PM 64.9 °F - 46.9 °F 52% 29.72 in 10.0 mi South 6.9 mph - N/A   Mostly Cloudy
6:53 PM 64.0 °F - 45.0 °F 50% 29.72 in 10.0 mi South 6.9 mph - N/A   Clear
7:53 PM 61.0 °F - 46.9 °F 60% 29.73 in 10.0 mi SSE 3.5 mph - N/A   Clear
8:53 PM 57.0 °F - 45.0 °F 64% 29.73 in 10.0 mi SE 5.8 mph - N/A   Clear
9:53 PM 54.0 °F - 45.0 °F 72% 29.74 in 10.0 mi Calm Calm - N/A   Clear
10:53 PM 51.1 °F - 45.0 °F 80% 29.76 in 10.0 mi Calm Calm - N/A   Clear
11:53 PM 48.0 °F - 46.0 °F 93% 29.77 in 10.0 mi North 5.8 mph - N/A   Clear